Change the Weather History Date:

Thursday, August 15, 2013

  Actual Average Record
Temperature  
Mean Temperature 63 °F 72 °F  
Max Temperature 74 °F 81 °F 96 °F (1944)
Min Temperature 51 °F 63 °F 44 °F (1962)
Degree Days  
Heating Degree Days 2 0  
Month to date heating degree days 4 0  
Since 1 June heating degree days 46 46  
Since 1 July heating degree days 7 4  
Cooling Degree Days 0 7  
Month to date cooling degree days 70 119  
Year to date cooling degree days 634 611  
Since 1 June cooling degree days 520 552  
Growing Degree Days 12 (Base 50)    
Moisture  
Dew Point 49 °F    
Average Humidity 64    
Maximum Humidity 89    
Minimum Humidity 38    
Precipitation  
Precipitation 0.00 in 0.11 in 1.12 in (1992)
Month to date precipitation 1.47 1.73  
Year to date precipitation 26.87 23.76  
Snow  
Snow 0.00 in 0.00 in - ()
Month to date snowfall 0.0 0.0  
Since 1 June snowfall 0.0 0.0  
Since 1 July snowfall 0.0 0.0  
Snow Depth 0.00 in    
Sea Level Pressure  
Sea Level Pressure 30.18 in    
Wind  
Wind Speed 5 mph (SW)    
Max Wind Speed 10 mph    
Max Gust Speed -    
Visibility 10 miles    
Events      
T = Trace of Precipitation, MM = Missing Value Source: NWS Daily Summary

Daily Weather History Graph

Daily Weather History Graph

Search for Another Location

Airport or City:

Trip Planner

Search our weather history database for the weather conditions in past years. The results will help you decide how hot, cold, wet, or windy it might be!

Date:

Astronomy

Aug. 15, 2013 Rise Set
Actual Time 6:36 AM EDT 8:26 PM EDT
Civil Twilight 6:06 AM EDT 8:55 PM EDT
Nautical Twilight 5:30 AM EDT 9:31 PM EDT
Astronomical Twilight 4:51 AM EDT 10:10 PM EDT
Moon 3:43 PM EDT (8/15) 12:44 AM EDT (8/15)
Length of Visible Light 14h 49m
Length of Day
13h 49m
Waxing Gibbous, 64% of the Moon is Illuminated
Aug 15
Waxing Gibbous
Aug 20
Full
Aug 28
Last Quarter
Sep 5
New
Sep 12
First Quarter

Hourly Weather History & Observations

Time (EDT) Temp. Dew Point Humidity Pressure Visibility Wind Dir Wind Speed Gust Speed Precip Events Conditions
12:51 AM 55.9 °F 50.0 °F 80% 30.19 in 10.0 mi SW 3.5 mph - N/A   Partly Cloudy
1:51 AM 54.0 °F 50.0 °F 86% 30.19 in 10.0 mi Calm Calm - N/A   Partly Cloudy
2:51 AM 54.0 °F 48.0 °F 80% 30.18 in 10.0 mi Calm Calm - N/A   Partly Cloudy
3:51 AM 53.1 °F 48.0 °F 83% 30.18 in 10.0 mi SSW 5.8 mph - N/A   Partly Cloudy
4:51 AM 52.0 °F 48.0 °F 86% 30.19 in 10.0 mi SSW 5.8 mph - N/A   Partly Cloudy
5:51 AM 54.0 °F 48.0 °F 80% 30.19 in 10.0 mi SSW 6.9 mph - N/A   Scattered Clouds
6:51 AM 52.0 °F 46.9 °F 83% 30.19 in 10.0 mi South 4.6 mph - N/A   Scattered Clouds
7:51 AM 55.9 °F 50.0 °F 80% 30.20 in 10.0 mi WSW 3.5 mph - N/A   Partly Cloudy
8:51 AM 61.0 °F 51.1 °F 70% 30.22 in 10.0 mi WSW 8.1 mph - N/A   Scattered Clouds
9:51 AM 66.0 °F 50.0 °F 56% 30.22 in 10.0 mi WSW 8.1 mph - N/A   Scattered Clouds
10:51 AM 66.9 °F 48.9 °F 52% 30.21 in 10.0 mi SW 6.9 mph - N/A   Mostly Cloudy
11:51 AM 69.1 °F 48.9 °F 49% 30.21 in 10.0 mi WSW 6.9 mph - N/A   Mostly Cloudy
12:51 PM 70.0 °F 50.0 °F 49% 30.20 in 10.0 mi West 9.2 mph - N/A   Mostly Cloudy
1:51 PM 71.1 °F 48.0 °F 44% 30.18 in 10.0 mi WSW 5.8 mph - N/A   Mostly Cloudy
2:51 PM 72.0 °F 48.9 °F 44% 30.17 in 10.0 mi WSW 10.4 mph - N/A   Mostly Cloudy
3:51 PM 71.1 °F 48.0 °F 44% 30.15 in 10.0 mi SW 6.9 mph - N/A   Mostly Cloudy
4:51 PM 73.0 °F 46.0 °F 38% 30.14 in 10.0 mi WSW 5.8 mph - N/A   Mostly Cloudy
5:51 PM 73.0 °F 46.9 °F 39% 30.14 in 10.0 mi Variable 6.9 mph - N/A   Mostly Cloudy
6:51 PM 69.1 °F 48.9 °F 49% 30.14 in 10.0 mi WSW 8.1 mph - N/A   Scattered Clouds
7:51 PM 69.1 °F 48.9 °F 49% 30.14 in 10.0 mi WSW 4.6 mph - N/A   Scattered Clouds
8:51 PM 68.0 °F 50.0 °F 52% 30.15 in 10.0 mi Calm Calm - N/A   Scattered Clouds
9:51 PM 66.0 °F 50.0 °F 56% 30.17 in 10.0 mi Calm Calm - N/A   Scattered Clouds
10:51 PM 60.1 °F 52.0 °F 75% 30.17 in 10.0 mi SSE 5.8 mph - N/A   Scattered Clouds
11:51 PM 60.1 °F 52.0 °F 75% 30.16 in 10.0 mi Calm Calm - N/A   Scattered Clouds